STARLINK-11260, 60997

Orbit data source: Space-Track

STARLINK-11260, 60997 is a payload satellite owned by SpaceX/Seattle (US) in LEO that was launched on Thu, 05 Sep 2024 UTC via an FALCON 9 launch vehicle from the Air Force Eastern Test Range (AFETR). Payloads include a variety of satellites, spacecraft, and rockets equipped with specific instruments for various scientific and technological missions. These include communications satellites like Starlink; space stations such as the ISS; scientific satellites like the Hubble; Earth observation satellites from companies like Planet Labs, Umbra, and HawkEye 360; GPS; miniature CubeSats for education and research; and military/defense satellites.

Loading next visibility...
STARLINK-11260 details
Identifier
60997, 2024-158H
Orbit
LEO
Last TLE update9 hours ago
Origin
Flag of USSpaceX/Seattle (US)
ManufacturerSpaceX/Seattle
MissionPartially operational spacecraft
Bus & MotorSTARLINK V2M, Unknown motor
Mass730 kg wet, ~700 kg dry
Launch date (UTC)
2024-09-05 (4 months ago)
Launch vehicle
FALCON 9
Launch site
Air Force Eastern Test Range (AFETR)
Object type
Payload
Rocket body
Debris
Shape & HBRUnknown
Radar Cross SectionLarge (>1 m²)

Expand to show TLE details & history

TLE from 9 hours ago
0 STARLINK-11260
1 60997U 24158H   24356.16667824 -.00110603  00000-0 -62687-3 0  9996
2 60997  53.1265 294.2234 0001122  62.4129 278.9797 15.78561966 18160
Epoch: 2024-12-21T04:00Z
Definitive object data (Epoch: 2024-12-21T04:00:00.999Z)
Latitude-14.96346°
Longitude132.49871°
Altitude338.431 km
Speed7.706 km/s
True Right ascension18h 50m 53s
True Declination-14° 52' 21"
Sunlit
Object was in daylight at TLE epoch
Visualization TLE readout
Latitude-38.6124°
Longitude105.56444°
Altitude347.66 km
Speed7.7 km/s
Apparent Right ascension20h 21m 23s
Apparent Declination-52° 54' 39"
Sunlit
Object is in daylight
Visualization observer readout
Local Sidereal Time12:00:44
Azimuth128.273° SE
Elevation-51.099°
Doppler factor1
Orbital elements
Apogee altitude335.535 km
Perigee altitude334.028 km
Semi-major axis6,712.918 km
Eccentricity0.0001122
Inclination53.1265°
RAAN294.2234°
Arg. of periapsis62.4129°
True anomaly278.967°
Mean anomaly278.9797°
Eccentric anomaly278.97335°
Mean motion3.94617 °/min
BSTAR-0.00062687
Orbital period91.23 mins
Loading maneuver chart data...
Loading historical data...
Loading historical data...
Loading historical data...
Loading historical data...
Loading historical data...
Loading historical data...
Loading historical data...

STARLINK-11260 Visibility forecast

Observer location: undefined°, undefined

Span
Click to sort rows by Start time (UTC) header in descending order
Start Az.
Max El. time (UTC)
Max El. Az.
Max El.
End time (UTC)
End Az.
5 mins2024-12-21 22:28:51.516Z211.169° SW2024-12-21 22:31:51.516Z111.22° ESE34.451°2024-12-21 22:33:51.516Z63.089° ENE
|